Location: Kott?ru
(16.6209°N, 80.6208°E)
Time: 16:01:42
(UTC+00:00)

STRAND 1 - Visible Passes

Search period start: 31 May 2023 00:00
Search period end: 10 June 2023 00:00
Orbit: 767 x 779 km, 98.4° (Epoch: 30 May)

Date Brightness Start Highest point End Pass type
(mag) Time Alt. Az. Time Alt. Az. Time Alt. Az.
31 May ? 13:59:06 10° NNW 14:03:08 24° WNW 14:07:10 10° SW visible
01 Jun ? 13:23:47 10° N 13:28:50 60° WNW 13:33:53 10° SSW visible
02 Jun ? 14:32:44 10° WNW 14:33:05 10° WNW 14:33:27 10° WNW visible
03 Jun ? 13:54:40 10° NNW 13:58:54 26° WNW 14:03:08 10° SW visible
05 Jun ? 14:27:13 10° NW 14:28:52 11° WNW 14:30:32 10° W visible
06 Jun ? 13:50:16 10° NNW 13:54:40 29° WNW 13:59:04 10° SW visible
08 Jun ? 14:22:21 10° NW 14:24:38 13° WNW 14:26:55 10° W visible
09 Jun ? 13:45:53 10° NNW 13:50:25 33° WNW 13:54:57 10° SW visible
